Meriden, CT

3:22 AM EDT on September 25, 2017 (GMT -0400)
Meriden Markham Municipal

Weather History for KMMK - October, 2012

Change the Weather History Date:

Thursday, October 11, 2012

  Actual Average (KOXC) Record (KOXC)
Temperature  
Mean Temperature 48 °F -  
Max Temperature 60 °F 59 °F 71 °F (2001)
Min Temperature 37 °F 41 °F 33 °F (2016)
Degree Days  
Heating Degree Days 17    
Moisture  
Dew Point 36 °F    
Average Humidity 68    
Maximum Humidity 93    
Minimum Humidity 32    
Precipitation  
Precipitation 0.00 in - - ()
Sea Level Pressure  
Sea Level Pressure 30.09 in    
Wind  
Wind Speed 4 mph (WNW)    
Max Wind Speed 14 mph    
Max Gust Speed 21 mph    
Visibility 10 miles    
Events      
Averages and records for this station are not official NWS values.
T = Trace of Precipitation, MM = Missing Value Source: NWS Daily Summary

Daily Weather History Graph

Daily Weather History Graph

Search for Another Location

Airport or City:

Trip Planner

Search our weather history database for the weather conditions in past years. The results will help you decide how hot, cold, wet, or windy it might be!

Date:

Astronomy

Oct. 11, 2012 Rise Set
Actual Time 6:59 AM EDT 6:15 PM EDT
Civil Twilight 6:31 AM EDT 6:43 PM EDT
Nautical Twilight 5:59 AM EDT 7:15 PM EDT
Astronomical Twilight 5:27 AM EDT 7:47 PM EDT
Moon 2:31 AM EDT (10/11) 3:53 PM EDT (10/11)
Length of Visible Light 12h 12m
Length of Day
11h 16m
Waning Crescent, 18% of the Moon is Illuminated
Oct 11
Waning Crescent
Oct 15
New
Oct 21
First Quarter
Oct 29
Full
Nov 6
Last Quarter

Hourly Weather History & Observations

Time (EDT) Temp. Windchill Dew Point Humidity Pressure Visibility Wind Dir Wind Speed Gust Speed Precip Events Conditions
12:53 AM 46.9 °F - 42.1 °F 83% 29.92 in 10.0 mi Calm Calm - N/A   Clear
1:53 AM 44.1 °F - 42.1 °F 93% 29.94 in 10.0 mi Calm Calm - N/A   Clear
2:53 AM 42.1 °F - 37.9 °F 85% 29.96 in 10.0 mi Calm Calm - N/A   Clear
3:53 AM 41.0 °F - 37.9 °F 89% 29.98 in 10.0 mi Calm Calm - N/A   Clear
4:53 AM 39.9 °F - 37.9 °F 93% 30.01 in 10.0 mi Calm Calm - N/A   Clear
5:53 AM 37.9 °F - 36.0 °F 93% 30.06 in 10.0 mi Calm Calm - N/A   Clear
6:53 AM 45.0 °F 40.1 °F 37.0 °F 74% 30.09 in 10.0 mi West 9.2 mph - N/A   Clear
7:53 AM 46.0 °F 41.0 °F 36.0 °F 68% 30.10 in 10.0 mi WNW 10.4 mph - N/A   Clear
8:53 AM 48.9 °F - 35.1 °F 59% 30.13 in 10.0 mi WNW 12.7 mph - N/A   Clear
9:53 AM 51.1 °F - 34.0 °F 52% 30.15 in 10.0 mi WNW 13.8 mph 20.7 mph N/A   Clear
10:53 AM 54.0 °F - 33.1 °F 45% 30.16 in 10.0 mi NW 13.8 mph - N/A   Clear
11:53 AM 55.0 °F - 33.1 °F 43% 30.16 in 10.0 mi Variable 6.9 mph - N/A   Clear
12:53 PM 57.9 °F - 33.1 °F 39% 30.14 in 10.0 mi WNW 10.4 mph - N/A   Clear
1:53 PM 57.9 °F - 33.1 °F 39% 30.13 in 10.0 mi West 5.8 mph - N/A   Clear
2:53 PM 57.9 °F - 30.9 °F 36% 30.13 in 10.0 mi WSW 5.8 mph - N/A   Clear
3:53 PM 59.0 °F - 28.9 °F 32% 30.13 in 10.0 mi West 8.1 mph - N/A   Clear
4:53 PM 57.9 °F - 32.0 °F 37% 30.13 in 10.0 mi West 6.9 mph - N/A   Clear
6:53 PM 46.9 °F - 39.0 °F 74% 30.14 in 10.0 mi Calm Calm - N/A   Clear
7:53 PM 44.1 °F - 39.0 °F 82% 30.14 in 10.0 mi Calm Calm - N/A   Clear
9:53 PM 39.9 °F - 37.9 °F 93% 30.15 in 10.0 mi Calm Calm - N/A   Clear
10:53 PM 39.9 °F - 37.0 °F 89% 30.16 in 10.0 mi Calm Calm - N/A   Clear
11:53 PM 39.9 °F - 37.0 °F 89% 30.14 in 10.0 mi Calm Calm - N/A   Clear